Location: ?
(35.4554°N, 139.3092°E)
Time: 21:58:15
(UTC+00:00)

Cosmos 2237 Rocket - Pass Details

Date: 21 April 2021
Orbit: 836 x 849 km, 71.0° (Epoch: 10 May)

Event Time Altitude Azimuth Distance (km) Brightness Sun altitude
Rises 12:07:54 0° 331° (NNW) 3,394 6.4 -30.2°
Reaches altitude 10° 12:10:26 10° 326° (NW) 2,454 5.5 -30.6°
Enters shadow 12:15:34 46° 261° (W) 1,115 2.9 -31.3°
